Location: Unspecified
(0.0000°N, 0.0000°E)
Time: 03:11:13
(UTC+00:00)

Altair - Visible Passes

Search period start: 02 April 2015 00:00
Search period end: 12 April 2015 00:00
Orbit: 1501 x 1683 km, 47.2° (Epoch: 31 March)

Date Brightness Start Highest point End Pass type
(mag) Time Alt. Az. Time Alt. Az. Time Alt. Az.
02 Apr 8.6 03:49:36 13° S 03:57:06 35° SE 04:05:25 10° ENE visible
02 Apr 9.5 18:43:36 10° W 18:51:19 24° SW 18:58:44 10° S visible
03 Apr 8.7 03:27:02 20° S 03:31:54 31° SE 03:39:58 10° ENE visible
03 Apr 7.7 05:27:25 10° SW 05:36:40 54° NW 05:45:33 10° NNE visible
03 Apr 9.4 18:17:56 10° WNW 18:26:02 27° SW 18:33:56 10° S visible
04 Apr 8.8 03:04:24 25° SSE 03:06:40 28° SE 03:14:27 10° ENE visible
04 Apr 7.5 05:02:31 11° SW 05:11:32 61° NW 05:20:34 10° NNE visible
05 Apr 9.0 02:41:43 25° SE 02:41:43 25° SE 02:48:51 10° E visible
05 Apr 7.4 04:39:49 23° SW 04:46:24 69° NW 04:55:33 10° NNE visible
06 Apr 9.3 02:18:56 20° ESE 02:18:56 20° ESE 02:23:11 10° E visible
06 Apr 7.4 04:17:02 39° SW 04:21:15 77° NW 04:30:30 10° NE visible
07 Apr 9.6 01:56:03 13° E 01:56:03 13° E 01:57:24 10° E visible
07 Apr 7.3 03:54:08 62° SW 03:56:07 85° NW 04:05:26 10° NE visible
08 Apr 7.3 03:31:08 86° E 03:31:08 86° E 03:40:20 10° NE visible
08 Apr 8.8 05:29:49 10° W 05:35:58 18° NW 05:41:27 10° N visible
09 Apr 7.8 03:08:03 58° ENE 03:08:03 58° ENE 03:15:11 10° NE visible
09 Apr 8.7 05:06:07 15° W 05:10:44 21° NW 05:16:55 10° N visible
10 Apr 8.4 02:44:52 38° ENE 02:44:52 38° ENE 02:50:02 10° NE visible
10 Apr 8.5 04:42:55 22° WNW 04:45:30 24° NW 04:52:17 10° N visible
11 Apr 9.0 02:21:34 25° ENE 02:21:34 25° ENE 02:24:49 10° NE visible
11 Apr 8.3 04:19:38 27° NW 04:20:17 27° NW 04:27:35 10° N visible
